COSMOS 249 DEB, 3584

Orbit data source: Space-Track

COSMOS 249 DEB, 3584 is space debris in LEO originally from a launch on Sun, 20 Oct 1968 UTC launched from the Tyuratam Missile And Space Complex (TTMTR). Debris objects in space refer to the collection of defunct objects orbiting the Earth. Examples of debris include non-operational satellites, rocket bodies, and fragments generated from explosions, collisions, or faulty payload assembly.

Loading next visibility...
Identifier
3584, 1968-091S
Orbit
LEO
Last TLE update
8 hours ago
Origin
Manufacturer
Unknown
Mission
Spacecraft
Bus & Motor
Unknown
Mass
Unknown
Launch date (UTC)
1968-10-20 (57 years ago)
Launch vehicle
Unknown
Launch site
Tyuratam Missile And Space Complex (TTMTR)
Object type
Payload
Rocket body
Debris
Shape & HBR
Unknown
Radar Cross Section
Small (<0.1 m²)

Expand to show TLE details & history

TLE from 8 hours ago
0 COSMOS 249 DEB
1 03584U 68091S   25199.62805847  .00017117  00000-0  18068-2 0  9992
2 03584  62.2949 333.0543 0342450 126.1252 237.2035 14.54771984814186
Epoch: 2025-07-18T15:04Z
TLE epoch observation values (Epoch: 2025-07-18T15:04:24.251Z)
Latitude
-0.00002°
Longitude
170.27645°
Altitude
849.075 km
Speed
7.357 km/s
True Right ascension
22h 12m 13s
True Declination
0° 00' 00"
Sunlit
Object was in full shadow at epoch
Visualization orbit readout
Latitude
-49.5638°
Longitude
131.40204°
Altitude
969.73 km
Speed
7.239 km/s
Apparent Right ascension
21h 44m 58s
Apparent Declination
-49° 29' 10"
Sunlit
Object is in full shadow
Visualization observer readout
Local Sidereal Time
11:49:36
Azimuth
123.962° SE
Elevation
-66.095°
Doppler factor
1
Orbital elements
Apogee altitude
951.715 km
Perigee altitude
466.316 km
Semi-major axis
7,087.153 km
Eccentricity
0.03425
Inclination
62.2949°
RAAN
333.0543°
Arg. of periapsis
126.1252°
True anomaly
233.98134°
Mean anomaly
237.2035°
Eccentric anomaly
235.58484°
Mean motion
3.63777 °/min
Orbital period
98.96 mins
BSTAR
0.0018068
Loading maneuver chart data...
Loading SW <> Apogee altitude chart data...
|